Погода Черновцы

Погода Черновцы : погода сейчас, прогноз погоды и архив. Всё, что Вы хотите узнать о погоде Черновцы!

Поиск расширенной информации на нашем сайте:

Другие новости

Новости СМИ2

Главная страница сайта

Новости сайта

03.07.2017

Напоминаем, что на нашем специализированном сайте Метеоцентр.Азия вы можете получить высокодетализированные автоматические прогнозы погоды по пунктам России, СНГ и мира в авиационном формате (включающие направление и скорость ветра, видимость, явления погоды, количество и форму облачности, нижнюю и верхнюю границу облачности).


Погода Черновцы - сегодня

Время (UTC), дата Ветер
(°,м/с) 
Видим.   Явления Облачность Т
(°С)
Тd
(°С)
f(%) Тe
(°С)
Pmin
(гПа)
dP
(гПа)
Po
(мм)
O2
(г/м3)
Тmin Tmax R s Состояние
почвы
21 16.10.18 120 (ЮВ) 11000 м    ясно 
+11.7 +5.5 66 +12  1025.1  747  288           
00 17.10.18 тихо ()   8000 м  дымка  ясно 
+9.5 +6.3 80 +10  1025  -0.3  746  290           
03 17.10.18 тихо ()   6000 м  дымка  ясно 
+8.2 +5.5 83 +8  1024.9  -0.3  746  291           
06 17.10.18 тихо ()   18000 м    ясно 
+6.9 +5.1 88 +7  1026  0.9  747  293  +6         
09 17.10.18 100 (В) 17000 м    ясно 
+17 +7 52 +18  1024.9  747  282           
12 17.10.18 110 (В) 45000 м    ясно 
+23.3 +8.3 38 +23  1022.6  -1.6  746  275           
15 17.10.18 140 (ЮВ) 17000 м    ясно 
+20 +6.6 42 +20  1022.5  -0.4  745  279           
18 17.10.18 180 (Ю) 18000 м    ясно 
+16 +6.2 52 +17  1022.8  -0.1  745  283    +23.3       
21 17.10.18 тихо ()   15000 м    ясно 
+12.8 +6.8 67 +13  1023  -0.1  745  286           
00 18.10.18 040 (СВ) 11000 м    ясно 
+10 +7.3 83 +11  1022.6  -0.7  745  288           
03 18.10.18 тихо ()   7000 м  дымка  ясно 
+8 +6.9 93 +8  1022.1  -0.7  744  290           
06 18.10.18 120 (ЮВ) 9000 м  дымка  ясно 
+8.1 +6.4 89 +9  1021.8  -0.3  744  290  +7  +0.7      сухая 
09 18.10.18 100 (В) 17000 м    ясно 
+15.3 +8.2 63 +15  1020.3  -0.7  743  282           
12 18.10.18 110 (В) 35000 м    ясно 
+21.1 +7.2 41 +21  1018.1  -1.6  742  276           
15 18.10.18 110 (В) 30000 м    3/0 верхняя 
[Ci fib]
+18.1 +6.2 46 +19  1018  -0.4  742  279           
18 18.10.18 тихо ()   13000 м    ясно 
+14.1 +5.5 56 +14  1018.7  0.3  742  283           
21 18.10.18 тихо ()   6000 м  дымка  ясно 
+11 +7.5 79 +11  1019  742  286           
00 19.10.18 320 (СЗ) 5000 м  дымка  ясно 
+9.5 +7.4 87 +9  1019.1  -0.1  742  288           
03 19.10.18 310 (СЗ) 5000 м  дымка  ясно 
+8.3 +6.8 90 +8  1019.1  -0.1  742  289           
06 19.10.18 300 (СЗ) 10 км    8/0 средняя 
[Ac trans]
+9 +7.1 88 +9  1019.7  0.7  743  288  +8  +0.9       
09 19.10.18 320 (СЗ) 12000 м    9/0 средняя 
[Ac trans]
+13.9 +6.7 62 +14  1019.5  0.3  743  284           
12 19.10.18 320 (СЗ) 12000 м    9/0 средняя 
[Ac trans]
+17.8 +7.6 51 +18  1018.2  -0.9  742  279           
15 19.10.18 300 (СЗ) 6000 м  дым  9/0 средняя 
[Ac trans]
+17 +8 55 +18  1018.4  0.1  742  280           
18 19.10.18 тихо ()   1700 м  дымка  8/0 средняя 
[Ac trans]
+14.1 +10.1 77 +16  1019.4  0.7  743  283    +18.3       
21 19.10.18 310 (СЗ) 6000 м  дымка  8/8 1500 м 
[Sc]
+14.3 +10.3 77 +16  1020.3  0.9  743  283           
Время (UTC), дата Ветер
(°,м/с) 
Видим.   Явления Облачность Т
(°С)
Тd
(°С)
f(%) Тe
(°С)
Pmin
(гПа)
dP
(гПа)
Po
(мм)
O2
(г/м3)
Тmin Tmax R s Состояние
почвы

Для получения пояснительной информации подведите курсор к названию столбца.

ПОГОДА Черновцы - архив

Всё, что Вы хотите узнать о погоде Черновцы - удобно и подробно!

Выберите нужную дату (начиная с 1 января 2015* года) и нажмите кнопку "Найти".
Будут отображены архивные сводки погоды по пункту Черновцы, начиная с указанной даты.


Отображать данные в формате CSV (для использования в таблицах Excel)


Внимание! Наш архив погоды предназначен исключительно для личного некоммерческого использования в познавательных целях. Если Вам необходимы официальные справки о состоянии погоды (для производственных, юридических, коммерческих и т.п. целей), обращайтесь в органы Росгидромета.

*Примечание: данная дата относится к архиву по метеостанциям СССР (Россия, СНГ, Балтия).
Архив по метеостанциям Зарубежной Европы и Азии (кроме Китая) хранится 10 дней, по другим регионам земного шара (Китай, Африка, Америка, Австралия, Океания) - 1 день.

Черновцы - район местоположения метеостанции


Название, широта, долгота, высота метеостанции:
Черновцы 48.4°ш. 25.9°д. 246 м над ур. моря [Украина]

Дополнительная информация

В oтличие oт бoльшинства пoгoдных сайтoв мы публикуем пoдрoбную метеoинфoрмацию в детальнoм прoфессиoнальнoм фoрмате.

Характеристики температуры и влажнoсти вoздуха измеряются на высoте 2 м в тени вдали oт зданий и деревьев.
Скoрoсть ветра измеряется на высoте 10 м (на урoвне рoста челoвека скoрoсть ветра ниже в 1.5-2 раза). Если метеoстанция нахoдится в гoрoде или в лесу, тo скoрoсть ветра занижена на 2-4 м/с пo сравнению с oткрытым местoм. Скoрoсть ветра над акватoриями крупных рек и oзёр, а также на вершинах хoлмoв на 2-5 м/с выше, чем в oбычных услoвиях.
Атмoсфернoе давление в разных тoчках местнoсти мoжет значительнo oтличаться oт давления на метеoстанции, в зависимoсти oт услoвий рельефа (при пoдъёме на 10 м давление пoнижается примернo на 1 мм рт.ст.).